ONEWEB-0038, 45145

Orbit data source: Space-Track

ONEWEB-0038, 45145 is a payload satellite owned by One Web (UK) in LEO that was launched on Thu, 06 Feb 2020 UTC via a SOYUZ-2-1B launch vehicle from the Tyuratam Missile And Space Complex (TTMTR). Payloads include a variety of satellites, spacecraft, and rockets equipped with specific instruments for various scientific and technological missions. These include communications satellites like Starlink; space stations such as the ISS; scientific satellites like the Hubble; Earth observation satellites from companies like Planet Labs, Umbra, and HawkEye 360; GPS; miniature CubeSats for education and research; and military/defense satellites.

Loading next visibility...
ONEWEB-0038 details
Identifier
45145, 2020-008Q
Orbit
LEO
Last TLE update18 hours ago
Origin
Flag of UKOne Web (UK)
ManufacturerOne Web
MissionOperational Commercial Communications
Bus & MotorARROW, Unknown motor
Mass148 kg wet, ~140 kg dry
Launch date (UTC)
2020-02-06 (5 years ago)
Launch vehicle
SOYUZ-2-1B
Launch site
Tyuratam Missile And Space Complex (TTMTR)
Object type
Payload
Rocket body
Debris
Shape & HBRTrap Box + 2 Pan, 5 m
Radar Cross Section2.957 m², Large (>1 m²)

Expand to show TLE details & history

TLE from 18 hours ago
0 ONEWEB-0038
1 45145U 20008Q   24360.65427013  .00000533  00000-0  14677-2 0  9990
2 45145  87.8903 128.3732 0001018  75.6788 284.4452 13.11418440240533
Epoch: 2024-12-25T15:42Z
Definitive object data (Epoch: 2024-12-25T15:42:08.939Z)
Latitude-0.0001°
Longitude158.19103°
Altitude1,220.373 km
Speed7.244 km/s
True Right ascension08h 33m 29s
True Declination0° 00' 00"
Sunlit
Object was in full shadow at TLE epoch
Visualization TLE readout
Latitude1.90221°
Longitude158.10909°
Altitude1,220.092 km
Speed7.245 km/s
Apparent Right ascension07h 11m 24s
Apparent Declination-51° 52' 56"
Sunlit
Object is in full shadow
Visualization observer readout
Local Sidereal Time09:22:30
Azimuth199.64° SSW
Elevation-6.129°
Doppler factor1
Orbital elements
Apogee altitude1,215.568 km
Perigee altitude1,214.022 km
Semi-major axis7,592.932 km
Eccentricity0.0001018
Inclination87.8903°
RAAN128.3732°
Arg. of periapsis75.6788°
True anomaly284.4339°
Mean anomaly284.4452°
Eccentric anomaly284.43955°
Mean motion3.28042 °/min
BSTAR0.0014677
Orbital period109.74 mins
Loading maneuver chart data...
Loading historical data...
Loading historical data...
Loading historical data...
Loading historical data...
Loading historical data...
Loading historical data...
Loading historical data...

ONEWEB-0038 Visibility forecast

Observer location: undefined°, undefined

Span
Click to sort rows by Start time (UTC) header in descending order
Start Az.
Max El. time (UTC)
Max El. Az.
Max El.
End time (UTC)
End Az.
12 mins2024-12-26 10:07:23.896Z215.212° SW2024-12-26 10:13:23.896Z282.015° WNW31.968°2024-12-26 10:19:23.896Z343.245° N
11 mins2024-12-26 19:47:23.896Z26.167° NE2024-12-26 19:52:23.896Z77.873° E26.593°2024-12-26 19:58:23.896Z136.403° SSE
12 mins2024-12-26 21:37:23.896Z342.494° N2024-12-26 21:42:23.896Z281.168° WNW36.773°2024-12-26 21:49:23.896Z205.959° SW
11 mins2024-12-27 08:06:23.896Z135.282° SSE2024-12-27 08:11:23.896Z84.675° E28.867°2024-12-27 08:17:23.896Z21.859° NNE
5 mins2024-12-27 09:56:23.896Z214.552° SW2024-12-27 10:01:23.896Z276.896° WNW34.454°2024-12-27 10:01:23.896Z276.896° WNW
|